User: anonymous   Login
Location: Observatorio Las Palmas
(29.0667°N, 110.9333°W)
Time: 07:04:02
(UTC-07:00)
Language:

NOAA 19 - Orbit

View from above orbital plane
View from above orbital plane
View from above satellite
View from above satellite

Ground track
Ground track

The orbit data is extracted from the following two-line orbital elements,

1 33591U 09005A   17324.91885479 +.00000106 +00000-0 +82606-4 0  9996
2 33591 099.1146 294.1317 0013715 187.9698 172.1257 14.12230311452515
Epoch (UTC): 20 November 2017 22:03:09
Eccentricity: 0.0013715
inclination: 99.1146°
perigee height: 842 km
apogee height: 861 km
right ascension of ascending node: 294.1317°
argument of perigee: 187.9698°
revolutions per day: 14.12230311
mean anomaly at epoch: 172.1257°
orbit number at epoch: 45251

The dashed part of the orbit path shows where the satellite is in the earth's shadow,  

DLR